www.pogodaiklimat.ru

Погода и климат >> Архив погоды >> Россия >> Коми >> Мутный Материк


ПОГОДА в Мутном Материке

  • Прогноз погоды в Мутном Материке
  • Монитор погоды в Мутном Материке

АРХИВ ПОГОДЫ в Мутном Материке

Время (UTC), дата Ветер
(напр.,м/с)
 
Видим.   Явления Облачность Т
(С)
Тd
(С)
f
(%)
Тe
(С)
Тes
(С)
Комфортность P
(гПа)
Po
(гПа)
Тmin
(С)
Tmax
(С)
R
(мм)
R24
(мм)
S
(см)
12 12.06 СЗ 6-11
{15}
50 км {ливн. осадки} 9/4 300 м
[Cb cap As trans]
+6.4 -1.3 58 +2 +3 1009.2 1000.5
15 12.06 СЗ 6-10
{14}
50 км 10/3 300 м
[Frnb As op]
+4.7 +0.3 73 -0 -0 1010.5 1001.7 +7.7 0.3
18 12.06 СЗ 4
{15}
50 км {ливн. осадки} 10/4 300 м
[Cb cap As op]
+2.6 0.0 83 -2 -2 1011.0 1002.2
21 12.06 СЗ 5 50 км 10/10 540 м
[Sc]
+2.1 -0.6 82 -3 -3 1010.9 1002.0
00 13.06 СЗ 7-13
{13}
50 км 10/10 570 м
[Sc]
+2.2 -0.6 82 -4 -4 1010.1 1001.2
03 13.06 СЗ 7-10
{14}
20 км слаб. дождь 10/9 360 м
[Frnb As op]
+2.3 +0.4 87 -4 -4 1010.2 1001.4 +2.0 0.3
06 13.06 СЗ 7-13
{16}
20 км слаб. дождь 10/9 400 м
[Frnb As op]
+3.4 0.0 78 -3 -2 1010.6 1001.8
09 13.06 СЗ 5-10
{16}
20 км слаб. дождь 10/0 500 м
[As op]
+3.2 +1.7 90 -2 -1 1012.1 1003.3
12 13.06 СЗ 7-13
{15}
20 км слаб. дождь 10/0 540 м
[As op]
+3.7 +1.7 87 -2 -2 1012.5 1003.7
15 13.06 СЗ 7-12
{14}
20 км слаб. дождь 10/10 400 м
[Frnb Ns]
+2.9 +1.1 88 -3 -3 1012.1 1003.3 +3.8 6
18 13.06 СЗ 5
{14}
10 км слаб. дождь 10/9 360 м
[Frnb As op]
+1.8 +0.6 92 -4 -4 1011.7 1002.8
21 13.06 СЗ 5
{11}
10 км слаб. дождь 10/9 330 м
[Frnb As op]
+1.3 -0.2 90 -5 -5 1011.2 1002.3
00 14.06 СЗ 6 10 км {дождь} 10/9 400 м
[Frnb As op]
+1.0 -0.7 88 -5 -5 1010.8 1001.9
03 14.06 СЗ 5 50 км в посл. час ливневой снег 10/10 500 м
[Cb cap]
+1.8 -0.6 84 -4 -4 1011.0 1002.1 +1.0 2
06 14.06 С 5
{11}
50 км {ливн. осадки} 8/8 420 м
[Cb cap]
+4.7 -0.8 67 0 +1 1010.9 1002.1
09 14.06 СЗ 6
{11}
50 км 8/8 500 м
[Sc]
+6.8 -0.1 61 +3 +4 1010.7 1002.0
12 14.06 СЗ 6
{11}
50 км 10/10 540 м
[Sc]
+6.4 +0.2 65 +2 +2 1010.6 1001.9
15 14.06 СЗ 9
{11}
50 км 10/3 300 м
[Sc Ac As]
+6.9 -0.9 58 +2 +2 1009.3 1000.6 +8.1
18 14.06 СЗ 1 50 км 10/3 600 м
[Sc Ac As]
+6.2 -0.8 61 +6 +6 1007.4 998.7
21 14.06 З 2 50 км 10/0
[As op]
+4.1 -0.9 70 +2 +2 1006.2 997.4
00 15.06 З 3 20 км слаб. дождь 10/0 600 м
[As op]
+3.1 +1.2 87 -1 -1 1004.5 995.7
03 15.06 З 3 50 км {дождь} 10/10 720 м
[Sc]
+4.0 +1.1 81 0 0 1003.0 994.3 +3.0 0.3
06 15.06 СЗ 4
{11}
50 км {ливн. осадки, дождь} 9/6 500 м
[Cb cap Ci fib]
+5.2 +1.4 76 +1 +4 1003.0 994.3
09 15.06 СЗ 6-12
{13}
50 км в посл. час ливневой дождь 9/8 540 м
[Cb cap Ci fib]
+6.9 +2.2 72 +3 +3 1003.1 994.5
12 15.06 С 5
{12}
50 км {ливн. осадки} 9/8 500 м
[Cb cap Ci fib]
+6.6 +0.6 65 +3 +3 1003.9 995.2
15 15.06 СЗ 5
{11}
50 км {ливн. осадки} 9/9 570 м
[Cb cap]
+5.5 -0.7 64 +1 +1 1004.5 995.8 +8.3 1
18 15.06 СЗ 2
{11}
50 км {ливн. осадки} 8/4 600 м
[Sc diur, vesp Ac trans Cc]
+3.5 -1.2 71 +1 +1 1004.7 996.0
21 15.06 З 3 50 км 10/10 600 м
[Sc]
+2.9 +0.2 82 -1 -1 1004.0 995.2
00 16.06 З 3 20 км слаб. дождь 10/9 400 м
[Frnb As op]
+2.3 +1.1 92 -2 -2 1003.0 994.2
03 16.06 З 4 20 км слаб. дождь 10/9 360 м
[Frnb As op]
+3.7 +2.1 89 -1 -1 1001.7 993.0 +2.1 1
06 16.06 З 4 20 км слаб. дождь 10/9 400 м
[Frnb As op]
+5.5 +3.6 88 +1 +2 1000.5 991.9
09 16.06 Ю 4 20 км слаб. дождь 10/9 360 м
[Frnb As op]
+6.2 +5.0 92 +2 +2 999.1 990.5
12 16.06 СЗ 5
{11}
50 км в посл. час дождь 10/8 400 м
[Frnb As op]
+6.4 +3.7 83 +2 +2 999.0 990.4
15 16.06 З 4
{11}
50 км 10/10 960 м
[Sc]
+6.8 +3.2 78 +3 +3 999.7 991.1 +8.4 2
18 16.06 СЗ 4
{11}
50 км 10/10 700 м
[Sc]
+5.3 +1.0 74 +1 +1 1000.4 991.7
21 16.06 З 3 50 км в посл. час дождь 10/10 800 м
[Sc]
+4.1 +2.1 87 0 0 999.7 991.0
00 17.06 З 4 50 км в посл. час дождь 10/3 600 м
[Sc As op]
+3.5 +1.2 85 -1 -1 999.5 990.8
03 17.06 З 4 20 км слаб. дождь 10/0 570 м
[As op]
+3.7 +1.5 86 -1 -0 999.7 991.0 +3.4 0.6
06 17.06 З 5
{11}
20 км слаб. дождь 10/0 500 м
[As op]
+4.5 +0.9 77 -0 +1 1000.6 1001.9
09 17.06 З 5
{10}
50 км {дождь} 10/10 1110 м
[Sc]
+6.1 +0.3 66 +2 +2 1001.2 992.6
12 17.06 З 4
{13}
50 км в посл. час ливневой дождь 10/10 600 м
[Cb cap]
+6.0 +2.2 77 +2 +2 1002.2 993.5
15 17.06 З 6
{10}
20 км слаб. дождь 10/0 600 м
[As op]
+5.2 +2.4 82 0 0 1002.7 994.0 +6.9 0.7
18 17.06 З 3
{10}
20 км слаб. дождь 10/8 360 м
[Frnb As op]
+4.3 +1.5 82 +1 +1 1002.6 993.9
21 17.06 З 5 50 км в посл. час дождь 10/9 400 м
[Frnb As op]
+4.1 +1.6 84 -1 -1 1001.4 992.7
00 18.06 З 3 50 км {дождь} 10/9 400 м
[Frnb As op]
+2.7 +1.3 90 -1 -1 1001.7 992.3
03 18.06 З 4 50 км 10/4 300 м
[Frnb As op]
+3.2 +0.2 81 -1 -1 1001.8 993.0 +2.5 2
06 18.06 СЗ 5-10
{11}
50 км {ливн. осадки} 8/8 300 м
[Cb cap Ci fib]
+4.0 +2.1 87 -1 0 1002.4 993.6 +1.7
09 18.06 З 6-12
{13}
50 км {ливн. осадки} 8/6 300 м
[Cb cap Ci fib]
+7.2 -1.2 55 +3 +5 1003.4 994.8
12 18.06 СЗ 7-11
{12}
50 км {ливн. осадки} 8/6 600 м
[Sc Ci fib]
+8.4 -1.2 51 +5 +5 1004.2 995.6
15 18.06 СЗ 5
{12}
50 км 9/9 870 м
[Sc]
+8.1 -0.7 54 +5 +5 1004.8 996.2 +8.9 1
18 18.06 СЗ 2 50 км 9/6 600 м
[Sc Ac trans]
+5.4 -0.9 64 +3 +3 1005.4 996.7
21 18.06 З 1 50 км 9/9 1000 м
[Sc]
+4.4 -0.8 69 +3 +3 1005.4 996.6
00 19.06 СЗ 3 50 км 9/9 840 м
[Sc]
+3.0 -1.6 72 -1 -1 1006.1 997.3
03 19.06 СЗ 3 50 км 10/10 800 м
[Sc]
+3.0 -1.9 70 -1 -1 1006.6 997.8 +2.3
06 19.06 СЗ 3 20 км слаб. дождь 10/0 630 м
[As op]
+4.2 +0.5 77 +1 +2 1007.1 998.3
09 19.06 З 4 50 км в посл. час ливневой дождь 9/9 540 м
[Cb cap]
+7.3 -0.5 58 +4 +5 1007.4 998.7

 

Местоположение метеостанции Мутный Материк (Коми, Россия): широта 65.95 долгота 55.17 высота над уровнем моря 71 м.

В архиве по умолчанию представлена погода в Мутном Материке за последнюю неделю. Архивные данные за месяц целиком и за предыдущие месяцы, начиная с января 2011 года, Вы можете получить, выбрав интересующий диапазон дат из раскрывающегося списка и нажав кнопку "Ввод!".


*Определитесь, кто Вы:
робот инопланетянин человек

Внимание! Время в таблицах - всемирное. Для получения местного времени необходимо прибавить поправку, которая равна 3 ч.

Смотрите также архив погоды в соседних городах и на ближайших метеорологических станциях:

Погода в Усть-Усе (Коми, Россия) (79 км)
Погода в Усинске (Коми, Россия) (100 км)
Погода в Ижме (Коми, Россия) (120 км)
Погода в Окуневом Носу (Коми, Россия) (121 км)
Погода в Печоре (Коми, Россия) (128 км)
Погода в Усть-Цильме (Коми, Россия) (145 км)
Погода в Ираеле (Коми, Россия) (159 км)
Погода в Кедва-Воме (Коми, Россия) (206 км)
Погода в Хорей-Вере (Ненецкий АО, Россия) (207 км)
Погода в Нарьян-Маре (Ненецкий АО, Россия) (209 км)

Пояснения к столбцам:

Ветер - указаны скорость ветра в м/с - средняя за 10 мин, порывы в срок и между сроками (в фигурных скобках) и направление, откуда дует ветер: С - северный, СВ - северо-восточный, В - восточный, ЮВ - юго-восточный, Ю - южный, ЮЗ - юго-западный, З - западный, СЗ - северо-западный.
Видимость - горизонтальная дальность видимости в метрах или километрах. При видимости от 1 до 10 км при отсутствии осадков обычно наблюдается дымка, при ухудшении видимости до 1 км и менее - туман. В сухую погоду видимость может ухудшаться дымом, пылью или мглою.
Явления - указаны атмосферные явления, наблюдавшиеся в срок или в последний час перед сроком; фигурными скобками обозначены явления, наблюдавшиеся между сроками (за 1-3 часа до срока); квадратными скобками обозначены град или гололедные отложения с указанием их диаметра в мм.
Облачность - указаны через наклонную черту общая и нижняя облачность в баллах и высота нижней границы облаков в метрах; квадратными скобками обозначены формы облаков: Ci - перистые, Cs - перисто-слоистые, Cc - перисто-кучевые, Ac - высококучевые, As - высокослоистые, Sc - слоисто-кучевые, Ns - слоисто-дождевые, Cu - кучевые, Cb - кучево-дождевые. Подробнее классификацию облаков см. в Атласе облаков (PDF).
T - Температура воздуха - температура, измеренная на высоте 2 м над землей.
Td - Температура точки росы - температура, при понижении до которой содержащийся в воздухе водяной пар достигнет насыщения.
f - Относительная влажность воздуха - влажноcть воздуха, измеренная на высоте 2 м над землей.
Te - Эффективная температура - температура, которую ощущает одетый по сезону человек в тени. Характеристика душности погоды. При расчете учитывается влияние влажности воздуха и скорости ветра на теплоощущения человека.
Tes - Эффективная температура на солнце - температура, которую ощущает человек, с поправкой на солнечный нагрев. Характеристика знойности погоды. Зависит от высоты солнца над горизонтом, облачности и скорости ветра. Ночью, в пасмурную погоду, а также при ветре 12 м/с и более поправка равна нулю.
P - Атмосферное давление - приведенное к уровню моря атмосферное давление.
Po - Атмосферное давление - измеренное на уровне метеостанции атмосферное давление.
Tmin - Минимальная температура - минимум температуры воздуха на высоте 2 м над землей.
Tmax - Максимальная температура - максимум температуры воздуха на высоте 2 м над землей.
R - Количество осадков - Количество выпавших осадков за период времени, мм. При наведении курсора мыши на число - период времени, за который выпало указанное количество осадков.
R24 - Количество осадков - Количество выпавших осадков за 24 часа, мм.
S - Снежный покров - Высота снежного покрова, см. При наведении курсора мыши на число - состояние снежного покрова и степень покрытия местности в баллах.